This demonstration page uses our WeatherBlox Daily Observations layout. Learn more.

Left ArrowRight Arrow

41.55636, -103.73856

Hourly Observations for November 27, 2016

Temp ( °F °C ) Dew Point ( °F °C ) Humidity (%) Winds ( mph kmh ) Pressure ( in mb ) Visibility ( mi km ) Precip ( " mm )
12:53 am 00:53 Clear 31 -0.6 16 -8.9 54 54 Calm 29.72 1006 10 16 0.00 0.00
1:53 am 01:53 Clear 33 0.6 16 -8.9 49 49 E 7 11 29.66 1004 10 16 0.00 0.00
2:53 am 02:53 Clear 30 -1.1 16 -8.9 56 56 Calm 29.63 1003 10 16 0.00 0.00
3:53 am 03:53 Clear 32 0 16 -8.9 52 52 WSW 5 7 29.60 1002 10 16 0.00 0.00
4:53 am 04:53 Clear 31 -0.6 18 -7.8 59 59 E 7 11 29.58 1002 10 16 0.00 0.00
5:53 am 05:53 Cloudy 32 0 18 -7.8 56 56 Calm 29.55 1001 10 16 0.00 0.00
6:53 am 06:53 Cloudy 35 1.7 17 -8.3 48 48 E 10 17 29.49 999 10 16 0.00 0.00
7:53 am 07:53 Cloudy 34 1.1 19 -7.2 54 54 SSW 9 15 29.49 999 10 16 0.00 0.00
8:53 am 08:53 Cloudy 36 2.2 20 -6.7 52 52 Calm 29.46 998 10 16 0.00 0.03
9:53 am 09:53 Cloudy with Light Snow 37 2.8 26 -3.3 65 65 W 17 28 29.49 999 3 4 0.01 0.25
10:22 am 10:22 Cloudy 34 1 27 -3 75 75 NW 7 11 29.50 999 10 16 0.00 0.00
10:53 am 10:53 Cloudy with Light Rain 35 1.7 29 -1.7 78 78 Calm 29.42 996 10 16 0.01 0.25
11:53 am 11:53 Cloudy 38 3.3 33 0.6 83 83 S 10 17 29.31 992 10 16 0.00 0.03
12:53 pm 12:53 Cloudy 45 7.2 33 0.6 63 63 WNW 12 19 29.27 991 10 16 0.00 0.00
1:13 pm 13:13 Mostly Cloudy 47 8.3 32 0 56 56 W 16 26 29.23 990 10 16 0.00 0.00
1:53 pm 13:53 Mostly Sunny 48 8.9 29 -1.7 48 48 W 26 43 29.21 989 10 16 0.00 0.00
2:53 pm 14:53 Mostly Sunny 47 8.3 27 -2.8 46 46 W 23 37 29.22 990 10 16 0.00 0.00
3:53 pm 15:53 Sunny 46 7.8 26 -3.3 46 46 W 20 31 29.22 990 10 16 0.00 0.00
4:53 pm 16:53 Clear 45 7.2 27 -2.8 49 49 W 23 37 29.23 990 10 16 0.00 0.00
5:53 pm 17:53 Clear 43 6.1 28 -2.2 56 56 W 20 31 29.23 990 10 16 0.00 0.00
6:53 pm 18:53 Clear 44 6.7 28 -2.2 53 53 W 22 35 29.23 990 10 16 0.00 0.00
7:53 pm 19:53 Clear 43 6.1 28 -2.2 56 56 W 20 31 29.26 991 10 16 0.00 0.00
8:53 pm 20:53 Clear 42 5.6 27 -2.8 55 55 W 14 22 29.29 992 10 16 0.00 0.00
9:53 pm 21:53 Mostly Cloudy 41 5 27 -2.8 57 57 W 17 28 29.29 992 10 16 0.00 0.00
10:53 pm 22:53 Partly Cloudy 41 5 26 -3.3 55 55 W 18 30 29.29 992 10 16 0.00 0.00
11:53 pm 23:53 Clear 40 4.4 26 -3.3 58 58 W 22 35 29.28 992 10 16 0.00 0.00

Powered by AerisWeather